Location: Unspecified
(0.0000°N, 0.0000°E)
Time: 17:41:54
(UTC+00:00)

USA 267 - Visible Passes

Search period start: 07 December 2019 00:00
Search period end: 17 December 2019 00:00
Orbit: 1101 x 1106 km, 123.0° (Epoch: 12 November)

Date Brightness Start Highest point End Pass type
(mag) Time Alt. Az. Time Alt. Az. Time Alt. Az.
07 Dec 4.4 18:09:25 10° E 18:14:02 21° NE 18:18:37 10° N visible
07 Dec 3.7 19:50:18 10° SSE 19:56:44 60° SW 20:03:09 10° NW visible
08 Dec 3.3 19:07:46 10° SE 19:14:07 55° NE 19:20:28 10° NNW visible
08 Dec 5.2 20:51:56 10° S 20:56:49 23° SW 21:01:43 10° W visible
09 Dec 4.3 18:26:56 10° E 18:31:35 21° NE 18:36:12 10° N visible
09 Dec 3.7 20:07:52 10° SSE 20:14:17 59° SW 20:20:42 10° NW visible
10 Dec 3.2 19:25:18 10° SE 19:31:40 55° NE 19:38:01 10° NNW visible
10 Dec 5.2 21:09:31 10° S 21:14:22 22° SW 21:19:14 10° W visible
11 Dec 4.3 18:44:27 10° E 18:49:07 21° NE 18:53:47 10° N visible
11 Dec 3.7 20:25:25 10° SSE 20:31:50 59° SW 20:38:14 10° NW visible
12 Dec 3.3 19:49:55 53° NNE 19:49:55 53° NNE 19:55:34 10° NNW visible
12 Dec 5.5 21:27:05 10° S 21:37:30 - WNW 21:28:23 15° SSW visible
13 Dec 4.4 19:07:40 20° NE 19:07:40 20° NE 19:11:21 10° N visible
13 Dec 5.4 20:55:09 13° NW 20:55:09 13° NW 20:55:47 10° NW visible
14 Dec 5.1 20:12:09 15° NNW 20:12:09 15° NNW 20:13:08 10° NNW visible
15 Dec 5.2 19:28:48 10° N 19:28:48 10° N 19:28:56 10° N visible
